Flag for U.S.A. Weather past 2 weeks in Tacoma, Washington, U.S.A.

Now
65 °F

Sunny.


Feels Like: 65 °F
Forecast: 56 / 73 °F
Wind: No wind

Location: Tacoma Narrows Airport

Current Time: Sep 17, 2014 at 12:42:59 PM

Latest Report: Sep 17, 2014 at 11:53 AM


Visibility: 10 mi

Pressure: 29.76 "Hg

Humidity: 73%

Dew point: 56 °F

Location of TacomaLocation

Historic Weather in Tacoma — Graph

°F

Tacoma temperature yesterday

Maximum temperature yesterday: 70 °F (at 2:57 PM)
Minimum temperature yesterday: 57 °F (at 8:53 AM)
Average temperature yesterday: 63 °F

Past Weeks' High & Low Weather Summary

 TemperatureHumidityPressure
High85 °F (Sep 6, 4:53 PM)97% (Sep 7, 7:53 AM)30.28 "Hg (Sep 7, 7:53 AM)
Low52 °F (Sep 4, 4:53 AM)15% (Sep 13, 3:53 PM)29.78 "Hg (Sep 15, 4:53 PM)
Average64 °F59%29.98 "Hg
* Reported Sep 2 10:53 AM — Sep 17 10:53 AM, Tacoma, Weather by CustomWeather, © 2014

Note: Actual official high and low records may vary slightly from our data, if they occured in-between our weather recording intervals... More about our weather records

Advertising

Tacoma weather history for previous 24 hours

 ConditionsComfort  
Time TempWeatherWind HumidityBarometerVisibility
10:53 AM
Sep 17
63 °FBroken clouds.No wind78%29.78 "Hg10 mi
9:53 AM60 °FMore clouds than sun.No wind83%29.79 "Hg10 mi
8:53 AM59 °FPassing clouds.No wind84%29.78 "Hg10 mi
7:53 AM58 °FSunny.3 mph87%29.78 "Hg10 mi
6:53 AM57 °FClear.No wind90%29.78 "Hg10 mi
5:53 AM58 °FClear.No wind84%29.78 "Hg10 mi
4:53 AM59 °FClear.No wind84%29.79 "Hg10 mi
3:53 AM58 °FPassing clouds.5 mph87%29.81 "Hg10 mi
2:53 AM60 °FPassing clouds.No wind80%29.82 "Hg10 mi
1:53 AM60 °FClear.No wind78%29.85 "Hg10 mi
12:53 AM61 °FClear.3 mph78%29.86 "Hg10 mi
11:53 PM
Sep 16
61 °FClear.3 mph78%29.88 "Hg10 mi
10:53 PM60 °FClear.5 mph80%29.88 "Hg10 mi
9:53 PM61 °FClear.6 mph78%29.88 "Hg10 mi
8:53 PM63 °FClear.5 mph73%29.88 "Hg10 mi
7:53 PM64 °FSunny.No wind70%29.87 "Hg10 mi
6:53 PM66 °FSunny.3 mph65%29.87 "Hg10 mi
5:53 PM68 °FSunny.6 mph61%29.87 "Hg10 mi
4:53 PM69 °FSunny.7 mph59%29.88 "Hg10 mi
3:53 PM70 °FSunny.8 mph57%29.89 "Hg10 mi
2:57 PM70 °FSunny.7 mph57%29.89 "Hg10 mi
1:53 PM69 °FSunny.7 mph59%29.89 "Hg10 mi
12:53 PM68 °FSunny.8 mph61%29.90 "Hg10 mi
Weather by CustomWeather, © 2014

See weather overviewHow to use our weather pages